Location: Newark
(54.6833°N, 25.2833°E)
Time: 16:35:42
(UTC+00:00)

Vanguard 3 - All Passes

Search period start: 20 November 2019 00:00
Search period end: 30 November 2019 00:00
Orbit: 508 x 3263 km, 33.4° (Epoch: 20 November)

Date Brightness Start Highest point End Pass type
(mag) Time Alt. Az. Time Alt. Az. Time Alt. Az.
20 Nov - 09:13:15 10° SSE 09:19:41 13° SE 09:26:10 10° ESE daylight
20 Nov - 11:17:07 10° SSW 11:31:44 27° SSE 11:45:13 10° ESE daylight
20 Nov - 13:28:36 10° SW 13:44:57 35° S 13:58:03 10° ESE daylight
20 Nov - 15:43:29 10° WSW 15:57:37 28° SSW 16:08:06 10° SSE visible
20 Nov - 18:02:46 10° WSW 18:08:20 13° SW 18:13:07 10° SSW visible
21 Nov - 10:04:19 10° S 10:16:37 22° SE 10:28:56 10° ESE daylight
21 Nov - 12:13:24 10° SW 12:29:29 33° SSE 12:43:41 10° ESE daylight
21 Nov - 14:26:45 10° WSW 14:42:44 34° SSW 14:55:09 10° SE visible
21 Nov - 16:43:15 10° WSW 16:54:36 21° SW 17:03:23 10° S visible
22 Nov - 08:53:52 10° SSE 09:01:59 14° SE 09:10:24 10° ESE daylight
22 Nov - 10:59:12 10° SSW 11:14:02 29° SSE 11:28:27 10° ESE daylight
22 Nov - 13:10:48 10° SW 13:27:24 36° S 13:41:24 10° ESE daylight
22 Nov - 15:25:39 10° WSW 15:40:13 29° SSW 15:51:27 10° SSE visible
22 Nov - 17:45:28 10° WSW 17:51:02 13° SW 17:55:55 10° SSW visible
23 Nov - 09:46:16 10° S 09:58:54 23° SE 10:12:07 10° ESE daylight
23 Nov - 11:55:41 10° SW 12:11:50 35° S 12:26:51 10° ESE daylight
23 Nov - 14:08:59 10° WSW 14:25:13 34° SSW 14:38:26 10° SE daylight
23 Nov - 16:25:34 10° WSW 16:37:12 21° SW 16:46:31 10° S visible
24 Nov - 08:35:19 10° SSE 08:44:16 16° SE 08:53:56 10° ESE daylight
24 Nov - 10:41:33 10° SSW 10:56:20 31° SSE 11:11:28 10° ESE daylight
24 Nov - 12:53:10 10° WSW 13:09:46 36° S 13:24:33 10° SE daylight
24 Nov - 15:07:57 10° WSW 15:22:43 28° SSW 15:34:38 10° SSE visible
24 Nov - 17:28:27 10° WSW 17:33:37 12° SW 17:38:16 10° SSW visible
25 Nov - 09:28:34 10° SSW 09:41:11 25° SSE 09:55:03 10° ESE daylight
25 Nov - 11:38:11 10° SW 11:54:08 36° S 12:09:51 10° ESE daylight
25 Nov - 13:51:24 10° WSW 14:07:37 34° SSW 14:21:32 10° SE daylight
25 Nov - 16:08:02 10° WSW 16:19:42 20° SW 16:29:24 10° S visible
26 Nov - 08:17:17 10° S 08:26:36 17° SE 08:37:03 10° ESE daylight
26 Nov - 10:24:07 10° SW 10:38:37 32° SSE 10:54:18 10° ESE daylight
26 Nov - 12:35:43 10° WSW 12:52:06 37° S 13:07:32 10° SE daylight
26 Nov - 14:50:23 10° WSW 15:05:07 28° SSW 15:17:35 10° SSE visible
26 Nov - 17:11:58 10° WSW 17:16:06 11° SW 17:19:58 10° SW visible
27 Nov - 09:11:09 10° SSW 09:23:30 26° SSE 09:37:46 10° ESE daylight
27 Nov - 11:20:53 10° SW 11:36:25 36° S 11:52:39 10° ESE daylight
27 Nov - 13:33:57 10° WSW 13:49:57 33° SSW 14:04:27 10° SE daylight
27 Nov - 15:50:40 10° WSW 16:02:06 19° SW 16:12:01 10° S visible
28 Nov - 07:59:40 10° S 08:08:58 19° SE 08:19:51 10° ESE daylight
28 Nov - 10:06:56 10° SW 10:20:55 33° SSE 10:36:56 10° ESE daylight
28 Nov - 12:18:27 10° WSW 12:34:23 36° S 12:50:19 10° SE daylight
28 Nov - 14:33:01 10° WSW 14:47:26 27° SSW 15:00:19 10° SSE visible
28 Nov - 16:57:13 10° WSW 16:58:31 10° SW 16:59:47 10° SW visible
29 Nov - 06:53:00 10° SE 06:55:05 10° SE 06:57:17 10° ESE daylight
29 Nov - 08:53:59 10° SSW 09:05:52 27° SSE 09:20:18 10° ESE daylight
29 Nov - 11:03:47 10° SW 11:18:44 36° S 11:35:17 10° ESE daylight
29 Nov - 13:16:43 10° WSW 13:32:14 32° SSW 13:47:09 10° SE daylight
29 Nov - 15:33:34 10° WSW 15:44:26 18° SW 15:54:16 10° S visible
